Meath Environmental Platform

Observations for Trim Patrick St

Time AQI Temp °C Hum % Pres Pa CO μg/m³ H₂S μg/m³ NO μg/m³ NO₂ μg/m³ O₃ μg/m³ SO₂ μg/m³ PM1 μg/m³ PM2.5 μg/m³ PM10 μg/m³
Monday 3 August 2026
06:32 1 16.1 79 38,460 0.23 0 1.9 15.35 46.01 0 4.57 8.77 9.64
06:30 1 16.1 79 38,460 0.24 0.59 1.71 22.56 37.35 0 4.57 8.08 8.89
06:28 1 16 80 38,460 0.23 0.43 1.57 21.2 37.65 0 5.43 8.73 9.6
06:27 1 16 80 38,460 0.23 0.36 1.6 27.06 39.33 0 6.29 9.44 10.39
06:26 1 16 80 38,460 0.22 0 1.73 14.55 39.69 0 5.43 10.11 11.12
06:24 1 15.9 79 38,460 0.23 1.06 1.73 28.4 36.54 0 6.29 10.17 11.19
06:23 1 15.9 80 38,460 0.22 0 1.98 14.95 34.94 0 5.43 9.41 10.35
06:22 1 15.9 79 38,460 0.23 0.83 1.82 23 42.62 0 7.14 10.87 11.96
06:19 1 15.9 80 38,460 0.23 0 1.84 18.46 44.03 0 4.57 7.98 8.78
06:18 1 15.8 80 38,460 0.23 0 1.86 15.17 43.02 0 4.57 7.99 8.79
06:17 1 15.8 80 38,460 0.22 0 1.66 16.76 39.46 0 4.57 8.68 9.55
06:16 1 15.8 80 38,460 0.23 0 1.85 15.29 41.03 0 6.29 10.8 11.88
06:15 1 15.8 80 38,460 0.22 2.16 1.77 27.01 46.89 0 5.43 10.13 11.14
06:14 1 15.8 80 38,460 0.23 1.14 1.64 23.81 33.42 0 5.43 9.4 10.34
06:13 1 15.8 80 38,460 0.23 1.66 1.64 29.27 35.33 0 5.43 9.4 10.34
06:12 1 15.8 81 38,460 0.23 0.51 1.72 22.76 37.06 0 6.29 8.68 9.54
06:11 1 15.7 81 38,460 0.22 1.37 1.77 23.54 38.87 0 5.43 8.67 9.54
06:10 1 15.7 81 38,460 0.23 0.33 1.72 17.21 34.96 0 4.57 9.37 10.3
06:09 1 15.7 80 38,460 0.23 2.73 1.81 30.23 40.43 0 5.43 9.4 10.34
06:08 1 15.7 81 38,460 0.23 3.25 1.93 25.16 42.69 0 5.43 10.07 11.08